Location: Blienschwiller
(48.3416°N, 7.4182°E)
Time: 08:42:46
(UTC+00:00)

ATLAS 2AS CENTAUR R/B - Pass Details

Date: 18 February 2020
Orbit: 929 x 1283 km, 63.7° (Epoch: 05 April)

Event Time Altitude Azimuth Distance (km) Brightness Sun altitude
Exits shadow 05:14:18 - 317° (NW) 3,801 5.2 -13.8°
Reaches altitude 10° 05:16:04 10° 322° (NW) 3,235 4.8 -13.5°
Maximum altitude 05:23:26 43° 32° (NNE) 1,635 3.9 -12.3°
Drops below altitude 10° 05:30:16 10° 102° (ESE) 3,008 6.6 -11.1°
Sets 05:33:02 0° 110° (ESE) 3,911 7.4 -10.7°
